• In Romania
  • List of Countries
  • For 7 days
  • Water Temperature
  • Satellite Maps
  • Weather Map
  • Weather Widgets
  • user-avatar
    Login

    Hourly Weather Linz

    Today, 24 June, Saturday

    Time Temperature Precipitation Wind Pressure Humidity
    00:00 +19°C° 0 mm 2 mps 735 mmHg 94%
    01:00 +19°C° 0 mm 2 mps 735 mmHg 94%
    02:00 +18°C° 0 mm 2 mps 735 mmHg 94%
    03:00 +18°C° 0 mm 2 mps 735 mmHg 94%
    04:00 +18°C° 0 mm 2 mps 735 mmHg 95%
    05:00 +19°C° 0 mm 2 mps 735 mmHg 91%
    06:00 +20°C° 0 mm 2 mps 735 mmHg 88%
    07:00 +21°C° 0 mm 2 mps 735 mmHg 85%
    08:00 +22°C° 0 mm 3 mps 735 mmHg 80%
    09:00 +24°C° 0 mm 3 mps 735 mmHg 75%
    10:00 +26°C° 0 mm 3 mps 735 mmHg 70%
    11:00 +26°C° 0 mm 3 mps 735 mmHg 68%
    12:00 +27°C° 0 mm 4 mps 735 mmHg 66%
    13:00 +28°C° 0 mm 4 mps 734 mmHg 65%
    14:00 +28°C° 0 mm 4 mps 734 mmHg 67%
    15:00 +27°C° 0 mm 4 mps 734 mmHg 69%
    16:00 +27°C° 0 mm 4 mps 734 mmHg 71%
    17:00 +26°C° 0.1 mm 3 mps 734 mmHg 76%
    18:00 +25°C° 0.1 mm 2 mps 734 mmHg 81%
    19:00 +24°C° 0.1 mm 2 mps 734 mmHg 86%
    20:00 +21°C° 0.2 mm 2 mps 734 mmHg 89%
    21:00 +21°C° 0.2 mm 1 mps 734 mmHg 92%
    22:00 +19°C° 0.2 mm 1 mps 734 mmHg 95%
    23:00 +19°C° 0.2 mm 1 mps 734 mmHg 94%

    Tomorrow, 25 June, Sunday

    Time Temperature Precipitation Wind Pressure Humidity
    00:00 +18°C° 0.2 mm 1 mps 734 mmHg 94%
    01:00 +18°C° 0.2 mm 1 mps 734 mmHg 94%
    02:00 +18°C° 0.1 mm 1 mps 734 mmHg 94%
    03:00 +16°C° 0.1 mm 1 mps 734 mmHg 95%
    04:00 +16°C° 0.1 mm 1 mps 734 mmHg 95%
    05:00 +18°C° 0.1 mm 1 mps 734 mmHg 94%
    06:00 +19°C° 0.1 mm 1 mps 734 mmHg 92%
    07:00 +20°C° 0.1 mm 1 mps 734 mmHg 91%
    08:00 +20°C° 1 mm 1 mps 734 mmHg 92%
    09:00 +19°C° 1 mm 1 mps 734 mmHg 92%
    10:00 +19°C° 1 mm 1 mps 734 mmHg 93%
    11:00 +19°C° 0.5 mm 2 mps 734 mmHg 92%
    12:00 +19°C° 0.5 mm 2 mps 734 mmHg 90%
    13:00 +20°C° 0.5 mm 3 mps 734 mmHg 88%
    14:00 +20°C° 0.1 mm 3 mps 734 mmHg 85%
    15:00 +21°C° 0.1 mm 3 mps 734 mmHg 82%
    16:00 +21°C° 0.1 mm 3 mps 733 mmHg 78%
    17:00 +21°C° 0.1 mm 3 mps 733 mmHg 81%
    18:00 +21°C° 0.1 mm 2 mps 734 mmHg 83%
    19:00 +21°C° 0.1 mm 2 mps 734 mmHg 85%
    20:00 +19°C° 0 mm 2 mps 734 mmHg 87%
    21:00 +18°C° 0 mm 2 mps 734 mmHg 90%
    22:00 +17°C° 0 mm 2 mps 734 mmHg 92%
    23:00 +16°C° 0 mm 2 mps 734 mmHg 93%

    Day after tomorrow, 26 June, Monday

    Time Temperature Precipitation Wind Pressure Humidity
    00:00 +16°C° 0 mm 2 mps 734 mmHg 93%
    01:00 +15°C° 0 mm 2 mps 734 mmHg 94%
    02:00 +15°C° 0 mm 2 mps 734 mmHg 94%
    03:00 +15°C° 0 mm 2 mps 734 mmHg 94%
    04:00 +14°C° 0 mm 1 mps 734 mmHg 95%
    05:00 +16°C° 0 mm 1 mps 734 mmHg 90%
    06:00 +19°C° 0 mm 1 mps 734 mmHg 86%
    07:00 +21°C° 0 mm 1 mps 734 mmHg 81%
    08:00 +21°C° 0 mm 2 mps 734 mmHg 76%
    09:00 +23°C° 0 mm 2 mps 734 mmHg 70%
    10:00 +25°C° 0 mm 2 mps 734 mmHg 64%
    11:00 +26°C° 0 mm 2 mps 734 mmHg 62%
    12:00 +27°C° 0 mm 2 mps 734 mmHg 60%
    13:00 +27°C° 0 mm 3 mps 733 mmHg 57%
    14:00 +27°C° 0 mm 2 mps 733 mmHg 58%
    15:00 +27°C° 0 mm 2 mps 733 mmHg 59%
    16:00 +27°C° 0 mm 2 mps 733 mmHg 60%
    17:00 +26°C° 0 mm 1 mps 733 mmHg 67%
    18:00 +25°C° 0 mm 1 mps 733 mmHg 74%
    19:00 +24°C° 0 mm 1 mps 733 mmHg 82%
    20:00 +22°C° 0 mm 1 mps 733 mmHg 85%
    21:00 +21°C° 0 mm 1 mps 733 mmHg 88%
    22:00 +19°C° 0 mm 1 mps 733 mmHg 91%
    23:00 +18°C° 0 mm 2 mps 732 mmHg 92%

    27 June, Tuesday

    Time Temperature Precipitation Wind Pressure Humidity
    00:00 +18°C° 0 mm 2 mps 732 mmHg 92%
    01:00 +17°C° 0 mm 2 mps 732 mmHg 93%
    02:00 +17°C° 0 mm 2 mps 732 mmHg 93%
    03:00 +17°C° 0 mm 2 mps 732 mmHg 94%
    04:00 +16°C° 0 mm 2 mps 731 mmHg 94%
    05:00 +19°C° 0 mm 1 mps 731 mmHg 89%
    06:00 +20°C° 0 mm 1 mps 731 mmHg 84%
    07:00 +22°C° 0 mm 1 mps 731 mmHg 79%
    08:00 +24°C° 0 mm 1 mps 731 mmHg 72%
    09:00 +26°C° 0 mm 1 mps 731 mmHg 66%
    10:00 +27°C° 0 mm 1 mps 731 mmHg 60%
    11:00 +28°C° 0.1 mm 1 mps 731 mmHg 59%
    12:00 +29°C° 0.1 mm 1 mps 730 mmHg 58%
    13:00 +30°C° 0.1 mm 1 mps 730 mmHg 57%
    14:00 +30°C° 0.2 mm 1 mps 730 mmHg 57%
    15:00 +30°C° 0.2 mm 1 mps 729 mmHg 56%
    16:00 +30°C° 0.2 mm 1 mps 729 mmHg 56%
    17:00 +29°C° 0.3 mm 1 mps 729 mmHg 65%
    18:00 +28°C° 0.3 mm 1 mps 729 mmHg 73%
    19:00 +25°C° 0.3 mm 0 mps 729 mmHg 81%
    20:00 +25°C° 0 mm 1 mps 729 mmHg 83%
    21:00 +22°C° 0 mm 1 mps 728 mmHg 85%
    22:00 +20°C° 0 mm 1 mps 728 mmHg 87%
    23:00 +20°C° 0 mm 1 mps 728 mmHg 87%

    28 June, Wednesday

    Time Temperature Precipitation Wind Pressure Humidity
    00:00 +20°C° 0 mm 1 mps 728 mmHg 86%
    01:00 +19°C° 0 mm 2 mps 728 mmHg 85%
    02:00 +19°C° 0 mm 1 mps 727 mmHg 86%
    03:00 +19°C° 0 mm 1 mps 727 mmHg 86%
    04:00 +18°C° 0 mm 1 mps 727 mmHg 87%
    05:00 +20°C° 0 mm 1 mps 727 mmHg 82%
    06:00 +22°C° 0 mm 1 mps 727 mmHg 78%
    07:00 +25°C° 0 mm 1 mps 726 mmHg 73%
    08:00 +26°C° 0 mm 1 mps 726 mmHg 67%
    09:00 +28°C° 0 mm 1 mps 726 mmHg 60%
    10:00 +30°C° 0 mm 2 mps 726 mmHg 54%
    11:00 +31°C° 0 mm 2 mps 725 mmHg 52%
    12:00 +32°C° 0 mm 2 mps 725 mmHg 49%
    13:00 +34°C° 0 mm 2 mps 724 mmHg 47%
    14:00 +34°C° 0 mm 2 mps 724 mmHg 47%
    15:00 +35°C° 0 mm 2 mps 724 mmHg 48%
    16:00 +35°C° 0 mm 3 mps 724 mmHg 48%
    17:00 +32°C° 0 mm 2 mps 724 mmHg 57%
    18:00 +29°C° 0 mm 2 mps 724 mmHg 66%
    19:00 +27°C° 0 mm 2 mps 724 mmHg 75%
    20:00 +25°C° 0 mm 2 mps 724 mmHg 78%
    21:00 +24°C° 0 mm 2 mps 724 mmHg 81%
    22:00 +22°C° 0 mm 1 mps 724 mmHg 84%
    23:00 +21°C° 0 mm 2 mps 723 mmHg 81%

    29 June, Thursday

    Time Temperature Precipitation Wind Pressure Humidity
    00:00 +23°C° 0 mm 2 mps 723 mmHg 79%
    01:00 +22°C° 0 mm 3 mps 723 mmHg 77%
    02:00 +22°C° 0 mm 3 mps 723 mmHg 74%
    03:00 +23°C° 0 mm 2 mps 722 mmHg 72%
    04:00 +23°C° 0 mm 2 mps 722 mmHg 70%
    05:00 +23°C° 0 mm 2 mps 722 mmHg 70%
    06:00 +24°C° 0 mm 2 mps 722 mmHg 71%
    07:00 +24°C° 0 mm 2 mps 722 mmHg 71%
    08:00 +26°C° 0.1 mm 3 mps 722 mmHg 66%
    09:00 +27°C° 0.1 mm 4 mps 723 mmHg 62%
    10:00 +29°C° 0.1 mm 4 mps 723 mmHg 57%
    11:00 +29°C° 0.4 mm 4 mps 723 mmHg 58%
    12:00 +29°C° 0.4 mm 4 mps 723 mmHg 58%
    13:00 +29°C° 0.4 mm 4 mps 723 mmHg 58%
    14:00 +28°C° 0.4 mm 4 mps 723 mmHg 58%
    15:00 +28°C° 0.4 mm 4 mps 723 mmHg 57%
    16:00 +28°C° 0.4 mm 4 mps 723 mmHg 57%
    17:00 +26°C° 0.5 mm 4 mps 723 mmHg 67%
    18:00 +23°C° 0.5 mm 4 mps 723 mmHg 77%
    19:00 +20°C° 0.5 mm 4 mps 723 mmHg 87%
    20:00 +19°C° 0.1 mm 3 mps 723 mmHg 90%
    21:00 +17°C° 0.1 mm 3 mps 724 mmHg 93%
    22:00 +16°C° 0.1 mm 2 mps 724 mmHg 96%
    23:00 +16°C° 0.2 mm 3 mps 724 mmHg 96%
    Show more